BEE-1000

Last updated on Wed Dec 31 2025 00:02:07 GMT+0000 (Coordinated Universal Time)

1 66650U 25274A 25364.59557244 .00002751 00000+0 27845-3 0 9997 2 66650 97.7406 291.4573 0011576 186.8166 173.2898 14.91728912 5068
UTC large
Height (km)
Speed (km/s)
/
Latitude / Longitude
Inclination (degrees)
Orbital Period (minutes)
Azimuth
Elevation
Range (km)
Doppler Factor

Next 0 passes for location: London (51.5072 / 0.1276)

Sorry there are no passes over London.